Weather History for Elsenborn, Belgium

Change the Weather History Date:

Thursday, December 13, 2012

  Actual Average Record
Temperature  
Mean Temperature 18 °F -  
Max Temperature 30 °F 35 °F 48 °F (2000)
Min Temperature 6 °F 30 °F 6 °F (2012)
Degree Days  
Heating Degree Days 47    
Moisture  
Dew Point 16 °F    
Average Humidity 86    
Maximum Humidity 100    
Minimum Humidity 67    
Precipitation  
Precipitation 0.00 in - - ()
Sea Level Pressure  
Sea Level Pressure 29.79 in    
Wind  
Wind Speed 2 mph ()    
Max Wind Speed 12 mph    
Max Gust Speed -    
Visibility 4.7 miles    
Events Fog , Snow    
Averages and records for this station are not official NWS values.
T = Trace of Precipitation, MM = Missing Value Source: Averaged Metar Reports

Daily Weather History Graph

Daily Weather History Graph

Search for Another Location

Airport:

Trip Planner

Search our weather history database for the weather conditions in past years. The results will help you decide how hot, cold, wet, or windy it might be!

Date:

Astronomy

Dec. 13, 2012 Rise Set
Actual Time 8:28 AM CET 4:31 PM CET
Civil Twilight 7:49 AM CET 5:10 PM CET
Nautical Twilight 7:07 AM CET 5:51 PM CET
Astronomical Twilight 6:27 AM CET 6:31 PM CET
Moon 8:18 AM CET (12/13) 4:57 PM CET (12/13)
Length of Visible Light 9h 20m
Length of Day
8h 03m
New Moon, 0% of the Moon is Illuminated
Dec 13
New Moon
Dec 20
First Quarter
Dec 28
Full
Jan 5
Last Quarter
Jan 11
New

Hourly Weather History & Observations

Time (CET) Temp. Windchill Dew Point Humidity Pressure Visibility Wind Dir Wind Speed Gust Speed Precip Events Conditions
12:01 AM 6.8 °F - 3.2 °F 85% 29.95 in 4.3 mi Calm Calm - N/A   Clear
12:25 AM 8.6 °F - 5.0 °F 85% 29.95 in 3.7 mi Variable 1.2 mph - N/A   Partly Cloudy
12:28 AM 6.8 °F - 3.2 °F 85% 29.92 in 5.0 mi Calm Calm - N/A   Partly Cloudy
12:34 AM 8.6 °F - 3.2 °F 79% 29.92 in 4.3 mi Calm Calm - N/A   Partly Cloudy
1:00 AM 8 °F - 5 °F 81% 30.12 in 3 mi Calm Calm - -  
1:25 AM 8.6 °F - 5.0 °F 85% 29.92 in 3.7 mi Calm Calm - N/A   Partly Cloudy
1:28 AM 8.6 °F - 3.2 °F 79% 29.92 in 5.0 mi Calm Calm - N/A   Clear
1:37 AM 8.6 °F - 3.2 °F 79% 29.89 in 4.3 mi Calm Calm - N/A   Clear
1:50 AM 6.8 °F - 3.2 °F 85% 29.89 in 5.0 mi Variable 1.2 mph - N/A   Partly Cloudy
1:57 AM 6.8 °F - 3.2 °F 85% 29.89 in 4.3 mi Variable 1.2 mph - N/A   Partly Cloudy
2:07 AM 8.6 °F - 5.0 °F 85% 29.89 in 5.0 mi Variable 1.2 mph - N/A   Partly Cloudy
2:20 AM 8.6 °F - 5.0 °F 85% 29.89 in 4.3 mi Calm Calm - N/A   Mostly Cloudy
2:25 AM 8.6 °F - 5.0 °F 85% 29.89 in 4.3 mi Calm Calm - N/A   Mostly Cloudy
2:32 AM 8.6 °F - 5.0 °F 85% 29.89 in 5.0 mi Calm Calm - N/A   Mostly Cloudy
3:25 AM 8.6 °F - 5.0 °F 85% 29.86 in 5.6 mi Variable 1.2 mph - N/A   Clear
4:00 AM 10 °F - 6 °F 77% 30.04 in 7 mi 2.2 mph - -   Scattered Clouds
4:25 AM 12.2 °F - 8.6 °F 85% 29.83 in 6.2 mi Calm Calm - N/A   Partly Cloudy
5:25 AM 12.2 °F - 8.6 °F 85% 29.80 in 6.2 mi Variable 1.2 mph - N/A   Clear
6:25 AM 15.8 °F - 12.2 °F 86% 29.80 in 6.2 mi Variable 2.3 mph - N/A   Partly Cloudy
7:00 AM 18 °F - 14 °F 78% 29.94 in 9 mi 2.2 mph - -   Scattered Clouds
7:25 AM 17.6 °F 12.3 °F 14.0 °F 86% 29.77 in 6.2 mi Variable 3.5 mph - N/A   Mostly Cloudy
8:25 AM 17.6 °F 12.3 °F 12.2 °F 79% 29.77 in 6.2 mi Variable 3.5 mph - N/A   Scattered Clouds
9:25 AM 19.4 °F 14.3 °F 14.0 °F 80% 29.77 in 6.2 mi Variable 3.5 mph - N/A   Scattered Clouds
10:00 AM 19 °F - 15 °F 78% 29.90 in 19 mi West 4.5 mph - -  
10:25 AM 21.2 °F 14.9 °F 17.6 °F 86% 29.74 in 6.2 mi WNW 4.6 mph - N/A   Scattered Clouds
11:25 AM 26.6 °F 19.1 °F 19.4 °F 74% 29.74 in 6.2 mi SSW 6.9 mph - N/A   Mostly Cloudy
12:25 PM 26.6 °F - 21.2 °F 80% 29.74 in 6.2 mi Variable 2.3 mph - N/A   Mostly Cloudy
1:00 PM 28 °F - 21 °F 67% 29.83 in 12 mi SSW 4.5 mph - -   Mostly Cloudy
1:25 PM 28.4 °F 22.2 °F 21.2 °F 74% 29.71 in 6.2 mi South 5.8 mph - N/A   Mostly Cloudy
2:25 PM 28.4 °F 24.6 °F 21.2 °F 74% 29.71 in 6.2 mi Variable 3.5 mph - N/A   Mostly Cloudy
3:25 PM 26.6 °F - 21.2 °F 80% 29.68 in 6.2 mi Variable 1.2 mph - N/A   Mostly Cloudy
4:00 PM 25 °F - 20 °F 76% 29.81 in 7 mi 2.2 mph - -   Scattered Clouds
4:25 PM 23.0 °F - 19.4 °F 86% 29.68 in 6.2 mi Variable 1.2 mph - N/A   Mostly Cloudy
5:25 PM 23.0 °F 18.4 °F 21.2 °F 93% 29.68 in 5.6 mi Variable 3.5 mph - N/A   Mostly Cloudy
5:55 PM 26.6 °F 20.0 °F 23.0 °F 86% 29.68 in 5.6 mi South 5.8 mph - N/A   Mostly Cloudy
6:25 PM 26.6 °F 19.1 °F 23.0 °F 86% 29.68 in 5.0 mi South 6.9 mph - N/A   Overcast
7:00 PM 28 °F - 26 °F 86% 29.77 in 3 mi South 11.2 mph - - Snow Light Snow
7:20 PM 28.4 °F 19.1 °F 26.6 °F 93% 29.65 in - South 10.4 mph - N/A   Overcast
7:25 PM 28.4 °F 19.1 °F 26.6 °F 93% 29.65 in 1.6 mi South 10.4 mph - N/A   Overcast
7:35 PM 28.4 °F 18.5 °F 26.6 °F 93% 29.65 in 1.1 mi South 11.5 mph - N/A   Overcast
8:25 PM 28.4 °F 18.5 °F 28.4 °F 100% 29.65 in 0.4 mi South 11.5 mph - N/A   Overcast
8:47 PM 28.4 °F 19.7 °F 28.4 °F 100% 29.65 in 0.5 mi South 9.2 mph - N/A   Mostly Cloudy
8:53 PM 28.4 °F 19.7 °F 28.4 °F 100% 29.65 in 0.7 mi South 9.2 mph - N/A   Mostly Cloudy
9:00 PM 28.4 °F 19.7 °F 28.4 °F 100% 29.65 in 0.7 mi South 9.2 mph - N/A   Overcast
9:15 PM 28.4 °F 19.7 °F 28.4 °F 100% 29.65 in 0.8 mi South 9.2 mph - N/A   Overcast
9:25 PM 30.2 °F 21.9 °F 28.4 °F 93% 29.65 in 0.5 mi South 9.2 mph - N/A   Overcast
10:00 PM 29 °F - 29 °F 100% 29.76 in 0 mi SSW 4.5 mph - - Fog Fog
10:25 PM 30.2 °F 24.3 °F 30.2 °F 100% 29.65 in 0.2 mi South 5.8 mph - N/A   Overcast
11:25 PM 30.2 °F 22.6 °F 30.2 °F 100% 29.65 in 0.2 mi South 8.1 mph - N/A   Overcast